Time,TemperatureF,DewpointF,PressureIn,WindDirection,WindDirectionDegrees,WindSpeedMPH,WindSpeedGustMPH,Humidity,HourlyPrecipIn,Conditions,Clouds,dailyrainin,SoftwareType,DateUTC
2013-01-12 00:03:00,11.0,6.8,29.54,North,355,4.0,12.0,83,0.00,,,0.00,WUHU216DAVISVP2,2013-01-12 06:03:00,
2013-01-12 00:08:00,11.0,6.8,29.54,NNW,330,0.0,12.0,83,0.00,,,0.00,WUHU216DAVISVP2,2013-01-12 06:08:00,
2013-01-12 00:13:00,10.9,6.7,29.55,North,355,0.0,9.0,83,0.00,,,0.00,WUHU216DAVISVP2,2013-01-12 06:13:00,
2013-01-12 00:18:00,10.8,6.6,29.55,North,9,3.0,11.0,83,0.00,,,0.00,WUHU216DAVISVP2,2013-01-12 06:18:00,
2013-01-12 00:23:00,10.7,6.5,29.56,NNW,344,4.0,14.0,83,0.00,,,0.00,WUHU216DAVISVP2,2013-01-12 06:23:00,
2013-01-12 00:28:00,10.7,6.3,29.55,North,360,0.0,14.0,82,0.00,,,0.00,WUHU216DAVISVP2,2013-01-12 06:28:00,
2013-01-12 00:33:00,10.5,6.1,29.55,North,360,8.0,13.0,82,0.00,,,0.00,WUHU216DAVISVP2,2013-01-12 06:33:00,
2013-01-12 00:38:00,10.4,6.0,29.56,NNW,346,0.0,10.0,82,0.00,,,0.00,WUHU216DAVISVP2,2013-01-12 06:38:00,
2013-01-12 00:43:00,10.3,5.9,29.56,North,351,5.0,11.0,82,0.00,,,0.00,WUHU216DAVISVP2,2013-01-12 06:43:00,
2013-01-12 00:48:00,10.2,5.8,29.56,NW,317,0.0,11.0,82,0.00,,,0.00,WUHU216DAVISVP2,2013-01-12 06:48:00,
2013-01-12 00:53:00,10.2,5.8,29.57,WNW,298,1.0,11.0,82,0.00,,,0.00,WUHU216DAVISVP2,2013-01-12 06:53:00,
2013-01-12 00:58:00,10.0,5.6,29.57,NNE,15,8.0,11.0,82,0.00,,,0.00,WUHU216DAVISVP2,2013-01-12 06:58:00,
2013-01-12 01:03:00,9.9,5.5,29.57,North,355,3.0,14.0,82,0.00,,,0.00,WUHU216DAVISVP2,2013-01-12 07:03:00,
2013-01-12 01:08:00,9.9,5.5,29.58,NW,323,2.0,14.0,82,0.00,,,0.00,WUHU216DAVISVP2,2013-01-12 07:08:00,
2013-01-12 01:13:00,9.9,5.5,29.58,NNW,335,7.0,12.0,82,0.00,,,0.00,WUHU216DAVISVP2,2013-01-12 07:13:00,
2013-01-12 01:18:00,9.9,5.5,29.58,NNW,345,6.0,11.0,82,0.00,,,0.00,WUHU216DAVISVP2,2013-01-12 07:18:00,
2013-01-12 01:23:00,9.9,5.5,29.59,NNW,331,0.0,11.0,82,0.00,,,0.00,WUHU216DAVISVP2,2013-01-12 07:23:00,
2013-01-12 01:28:00,9.9,5.5,29.59,NW,305,0.0,12.0,82,0.00,,,0.00,WUHU216DAVISVP2,2013-01-12 07:28:00,
2013-01-12 01:33:00,9.9,5.5,29.59,NW,320,3.0,12.0,82,0.00,,,0.00,WUHU216DAVISVP2,2013-01-12 07:33:00,
2013-01-12 01:38:00,9.8,5.4,29.60,WNW,295,0.0,12.0,82,0.00,,,0.00,WUHU216DAVISVP2,2013-01-12 07:38:00,
2013-01-12 01:43:00,9.7,5.3,29.60,NW,315,1.0,11.0,82,0.00,,,0.00,WUHU216DAVISVP2,2013-01-12 07:43:00,
2013-01-12 01:48:00,9.6,5.2,29.60,WNW,297,8.0,12.0,82,0.00,,,0.00,WUHU216DAVISVP2,2013-01-12 07:48:00,
2013-01-12 01:53:00,9.6,5.2,29.61,NNW,348,0.0,12.0,82,0.00,,,0.00,WUHU216DAVISVP2,2013-01-12 07:53:00,
2013-01-12 01:58:00,9.5,5.1,29.62,NNW,347,5.0,14.0,82,0.00,,,0.00,WUHU216DAVISVP2,2013-01-12 07:58:00,
2013-01-12 02:03:00,9.5,5.1,29.62,NNW,348,7.0,15.0,82,0.00,,,0.00,WUHU216DAVISVP2,2013-01-12 08:03:00,
2013-01-12 02:08:00,9.4,5.0,29.63,NW,318,3.0,15.0,82,0.00,,,0.00,WUHU216DAVISVP2,2013-01-12 08:08:00,
2013-01-12 02:13:00,9.4,5.0,29.63,WNW,293,0.0,12.0,82,0.00,,,0.00,WUHU216DAVISVP2,2013-01-12 08:13:00,
2013-01-12 02:18:00,9.4,5.0,29.64,WNW,298,0.0,10.0,82,0.00,,,0.00,WUHU216DAVISVP2,2013-01-12 08:18:00,
2013-01-12 02:23:00,9.5,5.1,29.64,NNW,346,0.0,9.0,82,0.00,,,0.00,WUHU216DAVISVP2,2013-01-12 08:23:00,
2013-01-12 02:28:00,9.4,5.0,29.64,West,265,3.0,12.0,82,0.00,,,0.00,WUHU216DAVISVP2,2013-01-12 08:28:00,
2013-01-12 02:33:00,9.3,4.9,29.64,NW,313,3.0,12.0,82,0.00,,,0.00,WUHU216DAVISVP2,2013-01-12 08:33:00,
2013-01-12 02:38:00,9.3,4.9,29.65,North,355,7.0,9.0,82,0.00,,,0.00,WUHU216DAVISVP2,2013-01-12 08:38:00,
2013-01-12 02:43:00,9.2,4.8,29.65,North,360,0.0,15.0,82,0.00,,,0.00,WUHU216DAVISVP2,2013-01-12 08:43:00,
2013-01-12 02:48:00,9.1,4.7,29.66,NW,309,4.0,16.0,82,0.00,,,0.00,WUHU216DAVISVP2,2013-01-12 08:48:00,
2013-01-12 02:53:00,9.1,4.7,29.66,NW,319,3.0,16.0,82,0.00,,,0.00,WUHU216DAVISVP2,2013-01-12 08:53:00,
2013-01-12 02:58:00,9.0,4.6,29.66,NW,324,4.0,12.0,82,0.00,,,0.00,WUHU216DAVISVP2,2013-01-12 08:58:00,
2013-01-12 03:03:00,8.9,4.5,29.67,North,5,0.0,13.0,82,0.00,,,0.00,WUHU216DAVISVP2,2013-01-12 09:03:00,
2013-01-12 03:08:00,8.6,4.0,29.68,NW,311,4.0,15.0,81,0.00,,,0.00,WUHU216DAVISVP2,2013-01-12 09:08:00,
2013-01-12 03:13:00,8.3,3.7,29.68,WNW,283,0.0,15.0,81,0.00,,,0.00,WUHU216DAVISVP2,2013-01-12 09:13:00,
2013-01-12 03:18:00,8.2,3.8,29.68,WNW,292,0.0,11.0,82,0.00,,,0.00,WUHU216DAVISVP2,2013-01-12 09:18:00,
2013-01-12 03:23:00,8.0,3.4,29.68,NNW,331,4.0,16.0,81,0.00,,,0.00,WUHU216DAVISVP2,2013-01-12 09:23:00,
2013-01-12 03:28:00,7.9,3.3,29.69,NW,325,0.0,16.0,81,0.00,,,0.00,WUHU216DAVISVP2,2013-01-12 09:28:00,
2013-01-12 03:33:00,7.7,3.1,29.69,NW,311,0.0,12.0,81,0.00,,,0.00,WUHU216DAVISVP2,2013-01-12 09:33:00,
2013-01-12 03:38:00,7.6,3.0,29.69,WNW,283,0.0,15.0,81,0.00,,,0.00,WUHU216DAVISVP2,2013-01-12 09:38:00,
2013-01-12 03:43:00,7.4,2.8,29.70,NNW,334,13.0,15.0,81,0.00,,,0.00,WUHU216DAVISVP2,2013-01-12 09:43:00,
2013-01-12 03:48:00,7.3,2.7,29.70,NNW,348,6.0,16.0,81,0.00,,,0.00,WUHU216DAVISVP2,2013-01-12 09:48:00,
2013-01-12 03:53:00,7.2,2.6,29.70,WNW,302,2.0,16.0,81,0.00,,,0.00,WUHU216DAVISVP2,2013-01-12 09:53:00,
2013-01-12 03:58:00,7.1,2.5,29.71,NW,313,3.0,12.0,81,0.00,,,0.00,WUHU216DAVISVP2,2013-01-12 09:58:00,
2013-01-12 04:03:00,7.0,2.4,29.71,WNW,291,3.0,12.0,81,0.00,,,0.00,WUHU216DAVISVP2,2013-01-12 10:03:00,
2013-01-12 04:08:00,6.9,2.3,29.71,NW,317,4.0,12.0,81,0.00,,,0.00,WUHU216DAVISVP2,2013-01-12 10:08:00,
2013-01-12 04:13:00,6.9,2.3,29.71,West,279,3.0,13.0,81,0.00,,,0.00,WUHU216DAVISVP2,2013-01-12 10:13:00,
2013-01-12 04:18:00,6.8,2.2,29.71,WNW,296,0.0,13.0,81,0.00,,,0.00,WUHU216DAVISVP2,2013-01-12 10:18:00,
2013-01-12 04:23:00,6.8,2.2,29.72,NW,313,0.0,13.0,81,0.00,,,0.00,WUHU216DAVISVP2,2013-01-12 10:23:00,
2013-01-12 04:29:00,6.7,2.1,29.72,NW,306,0.0,15.0,81,0.00,,,0.00,WUHU216DAVISVP2,2013-01-12 10:29:00,
2013-01-12 04:34:00,6.6,2.0,29.72,West,268,0.0,15.0,81,0.00,,,0.00,WUHU216DAVISVP2,2013-01-12 10:34:00,
2013-01-12 04:38:00,6.5,1.9,29.73,WNW,298,0.0,12.0,81,0.00,,,0.00,WUHU216DAVISVP2,2013-01-12 10:38:00,
2013-01-12 04:44:00,6.5,1.9,29.73,NW,314,5.0,14.0,81,0.00,,,0.00,WUHU216DAVISVP2,2013-01-12 10:44:00,
2013-01-12 04:49:00,6.3,1.7,29.73,NNW,348,4.0,14.0,81,0.00,,,0.00,WUHU216DAVISVP2,2013-01-12 10:49:00,
2013-01-12 04:54:00,6.3,1.7,29.74,WSW,244,2.0,14.0,81,0.00,,,0.00,WUHU216DAVISVP2,2013-01-12 10:54:00,
2013-01-12 04:58:00,6.2,1.6,29.74,WNW,284,5.0,15.0,81,0.00,,,0.00,WUHU216DAVISVP2,2013-01-12 10:58:00,
2013-01-12 05:04:00,6.1,1.5,29.75,WNW,282,1.0,16.0,81,0.00,,,0.00,WUHU216DAVISVP2,2013-01-12 11:04:00,
2013-01-12 05:09:00,5.9,1.3,29.75,WNW,296,5.0,16.0,81,0.00,,,0.00,WUHU216DAVISVP2,2013-01-12 11:09:00,
2013-01-12 05:14:00,5.8,1.2,29.76,West,267,6.0,13.0,81,0.00,,,0.00,WUHU216DAVISVP2,2013-01-12 11:14:00,
2013-01-12 05:19:00,5.7,1.1,29.76,SW,216,0.0,13.0,81,0.00,,,0.00,WUHU216DAVISVP2,2013-01-12 11:19:00,
2013-01-12 05:24:00,5.5,0.7,29.77,West,278,6.0,13.0,80,0.00,,,0.00,WUHU216DAVISVP2,2013-01-12 11:24:00,
2013-01-12 05:29:00,5.4,0.6,29.77,NW,318,0.0,11.0,80,0.00,,,0.00,WUHU216DAVISVP2,2013-01-12 11:29:00,
2013-01-12 05:34:00,5.4,0.6,29.78,WNW,289,0.0,11.0,80,0.00,,,0.00,WUHU216DAVISVP2,2013-01-12 11:34:00,
2013-01-12 05:39:00,5.3,0.7,29.78,NW,310,0.0,11.0,81,0.00,,,0.00,WUHU216DAVISVP2,2013-01-12 11:39:00,
2013-01-12 05:44:00,5.3,0.7,29.79,North,349,1.0,12.0,81,0.00,,,0.00,WUHU216DAVISVP2,2013-01-12 11:44:00,
2013-01-12 05:49:00,5.2,0.4,29.79,NNW,333,4.0,12.0,80,0.00,,,0.00,WUHU216DAVISVP2,2013-01-12 11:49:00,
2013-01-12 05:54:00,5.1,0.3,29.80,NNW,334,0.0,12.0,80,0.00,,,0.00,WUHU216DAVISVP2,2013-01-12 11:54:00,
2013-01-12 05:59:00,5.0,0.2,29.80,North,360,0.0,13.0,80,0.00,,,0.00,WUHU216DAVISVP2,2013-01-12 11:59:00,
2013-01-12 06:04:00,5.0,0.2,29.80,West,281,0.0,13.0,80,0.00,,,0.00,WUHU216DAVISVP2,2013-01-12 12:04:00,
2013-01-12 06:09:00,5.0,0.2,29.81,NNW,342,7.0,12.0,80,0.00,,,0.00,WUHU216DAVISVP2,2013-01-12 12:09:00,
2013-01-12 06:14:00,4.9,0.1,29.81,NNW,330,0.0,12.0,80,0.00,,,0.00,WUHU216DAVISVP2,2013-01-12 12:14:00,
2013-01-12 06:19:00,4.6,-0.2,29.81,NNW,345,0.0,12.0,80,0.00,,,0.00,WUHU216DAVISVP2,2013-01-12 12:19:00,
2013-01-12 06:24:00,4.6,-0.2,29.82,NW,304,0.0,11.0,80,0.00,,,0.00,WUHU216DAVISVP2,2013-01-12 12:24:00,
2013-01-12 06:29:00,4.4,-0.4,29.82,NNW,331,8.0,14.0,80,0.00,,,0.00,WUHU216DAVISVP2,2013-01-12 12:29:00,
2013-01-12 06:34:00,4.1,-1.0,29.83,WNW,302,5.0,14.0,79,0.00,,,0.00,WUHU216DAVISVP2,2013-01-12 12:34:00,
2013-01-12 06:39:00,3.9,-1.2,29.83,North,5,6.0,17.0,79,0.00,,,0.00,WUHU216DAVISVP2,2013-01-12 12:39:00,
2013-01-12 06:44:00,3.8,-1.0,29.83,West,264,0.0,17.0,80,0.00,,,0.00,WUHU216DAVISVP2,2013-01-12 12:44:00,
2013-01-12 06:49:00,3.7,-1.1,29.84,WNW,296,3.0,13.0,80,0.00,,,0.00,WUHU216DAVISVP2,2013-01-12 12:49:00,
2013-01-12 06:54:00,3.6,-1.2,29.84,NNW,346,2.0,13.0,80,0.00,,,0.00,WUHU216DAVISVP2,2013-01-12 12:54:00,
2013-01-12 06:59:00,3.6,-1.2,29.85,NNW,327,0.0,11.0,80,0.00,,,0.00,WUHU216DAVISVP2,2013-01-12 12:59:00,
2013-01-12 07:04:00,3.6,-1.2,29.86,NNW,327,0.0,12.0,80,0.00,,,0.00,WUHU216DAVISVP2,2013-01-12 13:04:00,
2013-01-12 07:09:00,3.6,-1.2,29.86,NW,312,0.0,12.0,80,0.00,,,0.00,WUHU216DAVISVP2,2013-01-12 13:09:00,
2013-01-12 07:14:00,3.6,-1.4,29.86,NNW,341,0.0,12.0,79,0.00,,,0.00,WUHU216DAVISVP2,2013-01-12 13:14:00,
2013-01-12 07:19:00,3.5,-1.5,29.87,NW,312,9.0,12.0,79,0.00,,,0.00,WUHU216DAVISVP2,2013-01-12 13:19:00,
2013-01-12 07:24:00,3.5,-1.5,29.88,ENE,75,4.0,12.0,79,0.00,,,0.00,WUHU216DAVISVP2,2013-01-12 13:24:00,
2013-01-12 07:29:00,3.4,-1.6,29.88,North,5,0.0,10.0,79,0.00,,,0.00,WUHU216DAVISVP2,2013-01-12 13:29:00,
2013-01-12 07:34:00,3.4,-1.6,29.88,North,5,0.0,11.0,79,0.00,,,0.00,WUHU216DAVISVP2,2013-01-12 13:34:00,
2013-01-12 07:39:00,3.3,-1.7,29.88,WNW,290,14.0,15.0,79,0.00,,,0.00,WUHU216DAVISVP2,2013-01-12 13:39:00,
2013-01-12 07:44:00,3.2,-1.8,29.89,WNW,288,0.0,15.0,79,0.00,,,0.00,WUHU216DAVISVP2,2013-01-12 13:44:00,
2013-01-12 07:49:00,3.0,-2.0,29.89,NW,323,0.0,15.0,79,0.00,,,0.00,WUHU216DAVISVP2,2013-01-12 13:49:00,
2013-01-12 07:54:00,2.8,-2.2,29.90,NW,321,0.0,15.0,79,0.00,,,0.00,WUHU216DAVISVP2,2013-01-12 13:54:00,
2013-01-12 07:59:00,2.8,-2.2,29.90,North,350,3.0,11.0,79,0.00,,,0.00,WUHU216DAVISVP2,2013-01-12 13:59:00,
2013-01-12 08:04:00,2.8,-2.2,29.90,NNW,340,0.0,10.0,79,0.00,,,0.00,WUHU216DAVISVP2,2013-01-12 14:04:00,
2013-01-12 08:09:00,2.8,-2.2,29.90,NNW,344,0.0,11.0,79,0.00,,,0.00,WUHU216DAVISVP2,2013-01-12 14:09:00,
2013-01-12 08:14:00,2.8,-2.2,29.90,NNW,338,0.0,11.0,79,0.00,,,0.00,WUHU216DAVISVP2,2013-01-12 14:14:00,
2013-01-12 08:19:00,2.8,-2.2,29.91,North,360,5.0,16.0,79,0.00,,,0.00,WUHU216DAVISVP2,2013-01-12 14:19:00,
2013-01-12 08:24:00,2.6,-2.4,29.91,North,349,0.0,16.0,79,0.00,,,0.00,WUHU216DAVISVP2,2013-01-12 14:24:00,
2013-01-12 08:29:00,2.6,-2.4,29.91,NNW,343,0.0,12.0,79,0.00,,,0.00,WUHU216DAVISVP2,2013-01-12 14:29:00,
2013-01-12 08:34:00,2.6,-2.4,29.91,North,351,3.0,12.0,79,0.00,,,0.00,WUHU216DAVISVP2,2013-01-12 14:34:00,
2013-01-12 08:39:00,2.5,-2.5,29.92,NW,325,7.0,12.0,79,0.00,,,0.00,WUHU216DAVISVP2,2013-01-12 14:39:00,
2013-01-12 08:44:00,2.5,-2.5,29.92,North,5,1.0,12.0,79,0.00,,,0.00,WUHU216DAVISVP2,2013-01-12 14:44:00,
2013-01-12 08:49:00,2.5,-2.5,29.92,North,360,5.0,11.0,79,0.00,,,0.00,WUHU216DAVISVP2,2013-01-12 14:49:00,
2013-01-12 08:54:00,2.6,-2.4,29.92,NNW,340,0.0,10.0,79,0.00,,,0.00,WUHU216DAVISVP2,2013-01-12 14:54:00,
2013-01-12 08:59:00,2.7,-2.3,29.92,NW,318,2.0,10.0,79,0.00,,,0.00,WUHU216DAVISVP2,2013-01-12 14:59:00,
2013-01-12 09:04:00,2.6,-2.4,29.92,North,355,5.0,10.0,79,0.00,,,0.00,WUHU216DAVISVP2,2013-01-12 15:04:00,
2013-01-12 09:09:00,2.5,-2.5,29.93,NW,323,4.0,9.0,79,0.00,,,0.00,WUHU216DAVISVP2,2013-01-12 15:09:00,
2013-01-12 09:14:00,2.4,-2.9,29.94,NNW,332,3.0,15.0,78,0.00,,,0.00,WUHU216DAVISVP2,2013-01-12 15:14:00,
2013-01-12 09:19:00,2.2,-3.1,29.94,North,360,4.0,15.0,78,0.00,,,0.00,WUHU216DAVISVP2,2013-01-12 15:19:00,
2013-01-12 09:24:00,2.3,-2.7,29.95,North,355,1.0,11.0,79,0.00,,,0.00,WUHU216DAVISVP2,2013-01-12 15:24:00,
2013-01-12 09:29:00,2.3,-3.0,29.96,WNW,287,0.0,13.0,78,0.00,,,0.00,WUHU216DAVISVP2,2013-01-12 15:29:00,
2013-01-12 09:34:00,2.3,-3.0,29.96,NW,324,5.0,13.0,78,0.00,,,0.00,WUHU216DAVISVP2,2013-01-12 15:34:00,
2013-01-12 09:39:00,2.3,-3.0,29.96,North,360,4.0,11.0,78,0.00,,,0.00,WUHU216DAVISVP2,2013-01-12 15:39:00,
2013-01-12 09:44:00,2.3,-3.0,29.96,NW,321,0.0,12.0,78,0.00,,,0.00,WUHU216DAVISVP2,2013-01-12 15:44:00,
2013-01-12 09:49:00,2.1,-3.2,29.97,NNW,345,0.0,12.0,78,0.00,,,0.00,WUHU216DAVISVP2,2013-01-12 15:49:00,
2013-01-12 09:54:00,2.3,-3.0,29.97,North,360,0.0,10.0,78,0.00,,,0.00,WUHU216DAVISVP2,2013-01-12 15:54:00,
2013-01-12 09:59:00,2.7,-2.3,29.97,NNW,338,0.0,9.0,79,0.00,,,0.00,WUHU216DAVISVP2,2013-01-12 15:59:00,
2013-01-12 10:04:00,2.8,-2.2,29.98,North,355,1.0,9.0,79,0.00,,,0.00,WUHU216DAVISVP2,2013-01-12 16:04:00,
2013-01-12 10:09:00,2.7,-2.6,29.98,WNW,302,0.0,10.0,78,0.00,,,0.00,WUHU216DAVISVP2,2013-01-12 16:09:00,
2013-01-12 10:14:00,2.7,-2.3,29.98,NNW,335,9.0,10.0,79,0.00,,,0.00,WUHU216DAVISVP2,2013-01-12 16:14:00,
2013-01-12 10:19:00,2.8,-2.5,29.99,WNW,299,0.0,12.0,78,0.00,,,0.00,WUHU216DAVISVP2,2013-01-12 16:19:00,
2013-01-12 10:24:00,2.7,-2.6,29.99,NW,321,0.0,12.0,78,0.00,,,0.00,WUHU216DAVISVP2,2013-01-12 16:24:00,
2013-01-12 10:29:00,2.7,-2.6,30.00,NNW,345,0.0,11.0,78,0.00,,,0.00,WUHU216DAVISVP2,2013-01-12 16:29:00,
2013-01-12 10:34:00,2.6,-3.0,30.00,North,10,7.0,14.0,77,0.00,,,0.00,WUHU216DAVISVP2,2013-01-12 16:34:00,
2013-01-12 10:39:00,2.3,-3.2,30.00,NW,319,5.0,14.0,77,0.00,,,0.00,WUHU216DAVISVP2,2013-01-12 16:39:00,
2013-01-12 10:44:00,2.5,-2.8,30.01,NNW,344,1.0,10.0,78,0.00,,,0.00,WUHU216DAVISVP2,2013-01-12 16:44:00,
2013-01-12 10:49:00,2.5,-3.0,30.01,North,5,3.0,6.0,77,0.00,,,0.00,WUHU216DAVISVP2,2013-01-12 16:49:00,
2013-01-12 10:54:00,2.6,-2.7,30.02,NNW,337,0.0,6.0,78,0.00,,,0.00,WUHU216DAVISVP2,2013-01-12 16:54:00,
2013-01-12 10:59:00,2.8,-2.5,30.01,North,355,0.0,10.0,78,0.00,,,0.00,WUHU216DAVISVP2,2013-01-12 16:59:00,
2013-01-12 11:04:00,2.6,-2.7,30.02,NW,313,0.0,11.0,78,0.00,,,0.00,WUHU216DAVISVP2,2013-01-12 17:04:00,
2013-01-12 11:09:00,2.8,-2.5,30.02,North,11,5.0,11.0,78,0.00,,,0.00,WUHU216DAVISVP2,2013-01-12 17:09:00,
2013-01-12 11:14:00,2.8,-2.5,30.03,West,259,0.0,7.0,78,0.00,,,0.00,WUHU216DAVISVP2,2013-01-12 17:14:00,
2013-01-12 11:19:00,2.8,-2.5,30.03,WNW,287,0.0,7.0,78,0.00,,,0.00,WUHU216DAVISVP2,2013-01-12 17:19:00,
2013-01-12 11:24:00,2.8,-2.5,30.03,NW,323,9.0,10.0,78,0.00,,,0.00,WUHU216DAVISVP2,2013-01-12 17:24:00,
2013-01-12 11:29:00,2.9,-2.4,30.03,West,265,0.0,12.0,78,0.00,,,0.00,WUHU216DAVISVP2,2013-01-12 17:29:00,
2013-01-12 11:34:00,3.2,-1.8,30.03,NW,315,0.0,12.0,79,0.00,,,0.00,WUHU216DAVISVP2,2013-01-12 17:34:00,
2013-01-12 11:39:00,2.9,-2.4,30.04,WNW,297,0.0,11.0,78,0.00,,,0.00,WUHU216DAVISVP2,2013-01-12 17:39:00,
2013-01-12 11:44:00,2.8,-2.5,30.04,WNW,302,5.0,11.0,78,0.00,,,0.00,WUHU216DAVISVP2,2013-01-12 17:44:00,
2013-01-12 11:49:00,2.8,-2.5,30.04,NW,317,0.0,13.0,78,0.00,,,0.00,WUHU216DAVISVP2,2013-01-12 17:49:00,
2013-01-12 11:54:00,2.8,-2.8,30.04,WNW,287,0.0,13.0,77,0.00,,,0.00,WUHU216DAVISVP2,2013-01-12 17:54:00,
2013-01-12 11:59:00,2.8,-2.8,30.03,WNW,298,1.0,11.0,77,0.00,,,0.00,WUHU216DAVISVP2,2013-01-12 17:59:00,
2013-01-12 12:04:00,2.8,-2.8,30.04,NNW,340,1.0,13.0,77,0.00,,,0.00,WUHU216DAVISVP2,2013-01-12 18:04:00,
2013-01-12 12:09:00,2.6,-3.0,30.03,WNW,289,4.0,13.0,77,0.00,,,0.00,WUHU216DAVISVP2,2013-01-12 18:09:00,
2013-01-12 12:14:00,2.4,-3.1,30.04,NW,307,0.0,10.0,77,0.00,,,0.00,WUHU216DAVISVP2,2013-01-12 18:14:00,
2013-01-12 12:19:00,2.4,-3.1,30.04,NW,315,0.0,10.0,77,0.00,,,0.00,WUHU216DAVISVP2,2013-01-12 18:19:00,
2013-01-12 12:24:00,2.4,-3.1,30.04,North,355,0.0,9.0,77,0.00,,,0.00,WUHU216DAVISVP2,2013-01-12 18:24:00,
2013-01-12 12:29:00,2.4,-3.1,30.05,West,280,0.0,11.0,77,0.00,,,0.00,WUHU216DAVISVP2,2013-01-12 18:29:00,
2013-01-12 12:34:00,2.3,-3.2,30.04,North,355,2.0,11.0,77,0.00,,,0.00,WUHU216DAVISVP2,2013-01-12 18:34:00,
2013-01-12 12:39:00,2.4,-3.1,30.05,NNW,332,1.0,11.0,77,0.00,,,0.00,WUHU216DAVISVP2,2013-01-12 18:39:00,
2013-01-12 12:44:00,2.5,-3.0,30.05,WNW,290,1.0,10.0,77,0.00,,,0.00,WUHU216DAVISVP2,2013-01-12 18:44:00,
2013-01-12 12:49:00,2.8,-2.8,30.05,NNW,342,1.0,10.0,77,0.00,,,0.00,WUHU216DAVISVP2,2013-01-12 18:49:00,
2013-01-12 12:54:00,3.0,-2.6,30.06,NW,319,0.0,9.0,77,0.00,,,0.00,WUHU216DAVISVP2,2013-01-12 18:54:00,
2013-01-12 12:59:00,3.2,-2.4,30.06,West,281,0.0,11.0,77,0.00,,,0.00,WUHU216DAVISVP2,2013-01-12 18:59:00,
2013-01-12 13:04:00,3.1,-2.5,30.06,North,5,1.0,11.0,77,0.00,,,0.00,WUHU216DAVISVP2,2013-01-12 19:04:00,
2013-01-12 13:09:00,3.1,-2.5,30.06,NW,304,3.0,10.0,77,0.00,,,0.00,WUHU216DAVISVP2,2013-01-12 19:09:00,
2013-01-12 13:14:00,3.2,-2.4,30.06,WNW,302,0.0,10.0,77,0.00,,,0.00,WUHU216DAVISVP2,2013-01-12 19:14:00,
2013-01-12 13:19:00,3.4,-2.2,30.06,West,268,3.0,9.0,77,0.00,,,0.00,WUHU216DAVISVP2,2013-01-12 19:19:00,
2013-01-12 13:24:00,3.3,-2.5,30.07,NNW,346,0.0,12.0,76,0.00,,,0.00,WUHU216DAVISVP2,2013-01-12 19:24:00,
2013-01-12 13:29:00,3.3,-2.5,30.07,NW,315,0.0,12.0,76,0.00,,,0.00,WUHU216DAVISVP2,2013-01-12 19:29:00,
2013-01-12 13:34:00,3.4,-2.2,30.07,NW,323,3.0,11.0,77,0.00,,,0.00,WUHU216DAVISVP2,2013-01-12 19:34:00,
2013-01-12 13:39:00,3.5,-2.1,30.08,NNW,333,0.0,11.0,77,0.00,,,0.00,WUHU216DAVISVP2,2013-01-12 19:39:00,
2013-01-12 13:44:00,3.2,-2.6,30.08,WNW,300,0.0,11.0,76,0.00,,,0.00,WUHU216DAVISVP2,2013-01-12 19:44:00,
2013-01-12 13:49:00,3.2,-2.4,30.08,North,350,0.0,10.0,77,0.00,,,0.00,WUHU216DAVISVP2,2013-01-12 19:49:00,
2013-01-12 13:54:00,3.1,-2.7,30.08,North,349,0.0,9.0,76,0.00,,,0.00,WUHU216DAVISVP2,2013-01-12 19:54:00,
2013-01-12 13:59:00,3.1,-2.5,30.08,NNE,32,0.0,9.0,77,0.00,,,0.00,WUHU216DAVISVP2,2013-01-12 19:59:00,
2013-01-12 14:04:00,3.2,-2.4,30.09,NW,321,0.0,9.0,77,0.00,,,0.00,WUHU216DAVISVP2,2013-01-12 20:04:00,
2013-01-12 14:09:00,3.5,-2.1,30.09,WNW,294,0.0,9.0,77,0.00,,,0.00,WUHU216DAVISVP2,2013-01-12 20:09:00,
2013-01-12 14:14:00,3.6,-2.0,30.09,NW,324,0.0,9.0,77,0.00,,,0.00,WUHU216DAVISVP2,2013-01-12 20:14:00,
2013-01-12 14:19:00,3.8,-1.8,30.10,NNW,336,4.0,9.0,77,0.00,,,0.00,WUHU216DAVISVP2,2013-01-12 20:19:00,
2013-01-12 14:24:00,3.7,-2.2,30.10,WNW,298,0.0,12.0,76,0.00,,,0.00,WUHU216DAVISVP2,2013-01-12 20:24:00,
2013-01-12 14:29:00,3.7,-1.9,30.10,NNW,334,0.0,12.0,77,0.00,,,0.00,WUHU216DAVISVP2,2013-01-12 20:29:00,
2013-01-12 14:34:00,4.1,-1.5,30.10,NW,311,0.0,6.0,77,0.00,,,0.00,WUHU216DAVISVP2,2013-01-12 20:34:00,
2013-01-12 14:39:00,4.1,-1.5,30.11,NNE,17,6.0,10.0,77,0.00,,,0.00,WUHU216DAVISVP2,2013-01-12 20:39:00,
2013-01-12 14:44:00,3.8,-2.1,30.11,WSW,252,2.0,12.0,76,0.00,,,0.00,WUHU216DAVISVP2,2013-01-12 20:44:00,
2013-01-12 14:49:00,4.0,-1.6,30.11,NW,307,0.0,12.0,77,0.00,,,0.00,WUHU216DAVISVP2,2013-01-12 20:49:00,
2013-01-12 14:54:00,3.8,-2.1,30.11,WNW,296,0.0,12.0,76,0.00,,,0.00,WUHU216DAVISVP2,2013-01-12 20:54:00,
2013-01-12 14:59:00,3.8,-2.1,30.11,NNE,16,0.0,9.0,76,0.00,,,0.00,WUHU216DAVISVP2,2013-01-12 20:59:00,
2013-01-12 15:04:00,3.7,-2.2,30.11,WNW,300,0.0,10.0,76,0.00,,,0.00,WUHU216DAVISVP2,2013-01-12 21:04:00,
2013-01-12 15:09:00,3.7,-2.2,30.12,NNW,331,2.0,10.0,76,0.00,,,0.00,WUHU216DAVISVP2,2013-01-12 21:09:00,
2013-01-12 15:14:00,3.6,-2.2,30.12,NNW,344,4.0,10.0,76,0.00,,,0.00,WUHU216DAVISVP2,2013-01-12 21:14:00,
2013-01-12 15:19:00,3.6,-2.2,30.12,WNW,284,0.0,11.0,76,0.00,,,0.00,WUHU216DAVISVP2,2013-01-12 21:19:00,
2013-01-12 15:24:00,3.3,-2.5,30.12,NNW,338,0.0,11.0,76,0.00,,,0.00,WUHU216DAVISVP2,2013-01-12 21:24:00,
2013-01-12 15:29:00,3.1,-2.7,30.12,NNW,337,2.0,11.0,76,0.00,,,0.00,WUHU216DAVISVP2,2013-01-12 21:29:00,
2013-01-12 15:34:00,2.8,-3.0,30.13,NW,306,0.0,10.0,76,0.00,,,0.00,WUHU216DAVISVP2,2013-01-12 21:34:00,
2013-01-12 15:39:00,2.8,-3.0,30.13,NNW,333,0.0,9.0,76,0.00,,,0.00,WUHU216DAVISVP2,2013-01-12 21:39:00,
2013-01-12 15:44:00,2.7,-3.1,30.13,NNW,337,0.0,10.0,76,0.00,,,0.00,WUHU216DAVISVP2,2013-01-12 21:44:00,
2013-01-12 15:49:00,2.8,-3.0,30.13,NW,310,0.0,10.0,76,0.00,,,0.00,WUHU216DAVISVP2,2013-01-12 21:49:00,
2013-01-12 15:54:00,2.8,-3.0,30.13,North,5,0.0,7.0,76,0.00,,,0.00,WUHU216DAVISVP2,2013-01-12 21:54:00,
2013-01-12 15:59:00,2.6,-3.2,30.13,NNE,22,0.0,7.0,76,0.00,,,0.00,WUHU216DAVISVP2,2013-01-12 21:59:00,
2013-01-12 16:04:00,2.8,-2.8,30.14,North,355,4.0,7.0,77,0.00,,,0.00,WUHU216DAVISVP2,2013-01-12 22:04:00,
2013-01-12 16:09:00,2.7,-3.1,30.14,WNW,300,0.0,10.0,76,0.00,,,0.00,WUHU216DAVISVP2,2013-01-12 22:09:00,
2013-01-12 16:14:00,2.6,-3.2,30.14,NNW,329,0.0,11.0,76,0.00,,,0.00,WUHU216DAVISVP2,2013-01-12 22:14:00,
2013-01-12 16:19:00,2.6,-3.2,30.14,NW,309,0.0,11.0,76,0.00,,,0.00,WUHU216DAVISVP2,2013-01-12 22:19:00,
2013-01-12 16:24:00,2.6,-3.2,30.14,NNW,339,0.0,11.0,76,0.00,,,0.00,WUHU216DAVISVP2,2013-01-12 22:24:00,
2013-01-12 16:29:00,2.4,-3.4,30.15,NNW,334,0.0,7.0,76,0.00,,,0.00,WUHU216DAVISVP2,2013-01-12 22:29:00,
2013-01-12 16:34:00,2.3,-3.2,30.15,NNW,338,0.0,5.0,77,0.00,,,0.00,WUHU216DAVISVP2,2013-01-12 22:34:00,
2013-01-12 16:39:00,2.3,-3.2,30.15,NNW,332,0.0,4.0,77,0.00,,,0.00,WUHU216DAVISVP2,2013-01-12 22:39:00,
2013-01-12 16:44:00,2.4,-3.1,30.15,NW,321,0.0,7.0,77,0.00,,,0.00,WUHU216DAVISVP2,2013-01-12 22:44:00,
2013-01-12 16:49:00,2.3,-3.2,30.15,NW,319,0.0,7.0,77,0.00,,,0.00,WUHU216DAVISVP2,2013-01-12 22:49:00,
2013-01-12 16:54:00,2.4,-3.1,30.15,NNW,339,0.0,5.0,77,0.00,,,0.00,WUHU216DAVISVP2,2013-01-12 22:54:00,
2013-01-12 16:59:00,2.4,-3.1,30.16,WNW,300,0.0,0.0,77,0.00,,,0.00,WUHU216DAVISVP2,2013-01-12 22:59:00,
2013-01-12 17:04:00,2.5,-2.8,30.16,WNW,299,0.0,0.0,78,0.00,,,0.00,WUHU216DAVISVP2,2013-01-12 23:04:00,
2013-01-12 17:09:00,2.4,-2.9,30.16,North,5,0.0,0.0,78,0.00,,,0.00,WUHU216DAVISVP2,2013-01-12 23:09:00,
2013-01-12 17:14:00,2.3,-3.0,30.16,NNW,342,0.0,0.0,78,0.00,,,0.00,WUHU216DAVISVP2,2013-01-12 23:14:00,
2013-01-12 17:19:00,2.3,-3.0,30.16,NNW,342,0.0,0.0,78,0.00,,,0.00,WUHU216DAVISVP2,2013-01-12 23:19:00,
2013-01-12 17:24:00,2.3,-3.0,30.16,NNW,337,0.0,0.0,78,0.00,,,0.00,WUHU216DAVISVP2,2013-01-12 23:24:00,
2013-01-12 17:29:00,2.2,-3.1,30.17,NNW,333,0.0,0.0,78,0.00,,,0.00,WUHU216DAVISVP2,2013-01-12 23:29:00,
2013-01-12 17:34:00,2.1,-3.2,30.17,North,360,0.0,0.0,78,0.00,,,0.00,WUHU216DAVISVP2,2013-01-12 23:34:00,
2013-01-12 17:39:00,2.0,-3.3,30.17,NNW,340,0.0,5.0,78,0.00,,,0.00,WUHU216DAVISVP2,2013-01-12 23:39:00,
2013-01-12 17:44:00,2.0,-3.3,30.17,NNW,338,0.0,5.0,78,0.00,,,0.00,WUHU216DAVISVP2,2013-01-12 23:44:00,
2013-01-12 17:49:00,1.9,-3.4,30.17,WNW,284,0.0,0.0,78,0.00,,,0.00,WUHU216DAVISVP2,2013-01-12 23:49:00,
2013-01-12 17:54:00,1.8,-3.5,30.17,NNW,341,0.0,7.0,78,0.00,,,0.00,WUHU216DAVISVP2,2013-01-12 23:54:00,
2013-01-12 17:59:00,1.9,-3.4,30.17,WNW,302,0.0,7.0,78,0.00,,,0.00,WUHU216DAVISVP2,2013-01-12 23:59:00,
2013-01-12 18:04:00,1.8,-3.5,30.17,NNW,342,0.0,5.0,78,0.00,,,0.00,WUHU216DAVISVP2,2013-01-13 00:04:00,
2013-01-12 18:09:00,1.8,-3.5,30.17,NW,317,0.0,1.0,78,0.00,,,0.00,WUHU216DAVISVP2,2013-01-13 00:09:00,
2013-01-12 18:14:00,1.8,-3.7,30.17,WNW,287,0.0,5.0,77,0.00,,,0.00,WUHU216DAVISVP2,2013-01-13 00:14:00,
2013-01-12 18:19:00,1.8,-3.5,30.17,NW,322,0.0,5.0,78,0.00,,,0.00,WUHU216DAVISVP2,2013-01-13 00:19:00,
2013-01-12 18:24:00,1.8,-3.5,30.18,NNW,340,0.0,0.0,78,0.00,,,0.00,WUHU216DAVISVP2,2013-01-13 00:24:00,
2013-01-12 18:29:00,1.9,-3.4,30.17,NNW,342,0.0,1.0,78,0.00,,,0.00,WUHU216DAVISVP2,2013-01-13 00:29:00,
2013-01-12 18:34:00,2.0,-3.3,30.17,NNW,342,0.0,1.0,78,0.00,,,0.00,WUHU216DAVISVP2,2013-01-13 00:34:00,
2013-01-12 18:39:00,2.0,-3.5,30.17,NNW,337,0.0,0.0,77,0.00,,,0.00,WUHU216DAVISVP2,2013-01-13 00:39:00,
2013-01-12 18:44:00,2.0,-3.5,30.17,NNW,328,0.0,0.0,77,0.00,,,0.00,WUHU216DAVISVP2,2013-01-13 00:44:00,
2013-01-12 18:49:00,1.9,-3.4,30.17,North,355,0.0,0.0,78,0.00,,,0.00,WUHU216DAVISVP2,2013-01-13 00:49:00,
2013-01-12 18:54:00,1.8,-3.5,30.18,North,355,0.0,0.0,78,0.00,,,0.00,WUHU216DAVISVP2,2013-01-13 00:54:00,
2013-01-12 18:59:00,1.8,-3.5,30.18,NNW,340,0.0,3.0,78,0.00,,,0.00,WUHU216DAVISVP2,2013-01-13 00:59:00,
2013-01-12 19:04:00,1.7,-3.6,30.18,North,355,0.0,3.0,78,0.00,,,0.00,WUHU216DAVISVP2,2013-01-13 01:04:00,
2013-01-12 19:09:00,1.7,-3.6,30.18,NNW,328,0.0,0.0,78,0.00,,,0.00,WUHU216DAVISVP2,2013-01-13 01:09:00,
2013-01-12 19:14:00,1.7,-3.6,30.18,NNW,329,0.0,0.0,78,0.00,,,0.00,WUHU216DAVISVP2,2013-01-13 01:14:00,
2013-01-12 19:19:00,1.8,-3.5,30.18,NNW,342,0.0,0.0,78,0.00,,,0.00,WUHU216DAVISVP2,2013-01-13 01:19:00,
2013-01-12 19:24:00,1.9,-3.4,30.18,West,276,0.0,0.0,78,0.00,,,0.00,WUHU216DAVISVP2,2013-01-13 01:24:00,
2013-01-12 19:29:00,2.0,-3.0,30.18,North,350,0.0,1.0,79,0.00,,,0.00,WUHU216DAVISVP2,2013-01-13 01:29:00,
2013-01-12 19:34:00,1.9,-3.4,30.19,NNE,15,0.0,1.0,78,0.00,,,0.00,WUHU216DAVISVP2,2013-01-13 01:34:00,
2013-01-12 19:39:00,2.0,-3.3,30.19,NNE,17,0.0,0.0,78,0.00,,,0.00,WUHU216DAVISVP2,2013-01-13 01:39:00,
2013-01-12 19:44:00,2.0,-3.3,30.19,NNE,15,0.0,0.0,78,0.00,,,0.00,WUHU216DAVISVP2,2013-01-13 01:44:00,
2013-01-12 19:49:00,2.1,-2.9,30.19,NNE,15,0.0,0.0,79,0.00,,,0.00,WUHU216DAVISVP2,2013-01-13 01:49:00,
2013-01-12 19:54:00,2.2,-2.8,30.19,WNW,293,0.0,0.0,79,0.00,,,0.00,WUHU216DAVISVP2,2013-01-13 01:54:00,
2013-01-12 19:59:00,2.3,-2.7,30.19,West,281,0.0,10.0,79,0.00,,,0.00,WUHU216DAVISVP2,2013-01-13 01:59:00,
2013-01-12 20:05:00,2.4,-2.9,30.20,NW,311,2.0,10.0,78,0.00,,,0.00,WUHU216DAVISVP2,2013-01-13 02:05:00,
2013-01-12 20:10:00,2.4,-2.9,30.20,NNW,329,0.0,10.0,78,0.00,,,0.00,WUHU216DAVISVP2,2013-01-13 02:10:00,
2013-01-12 20:15:00,2.2,-3.3,30.20,NNW,331,0.0,11.0,77,0.00,,,0.00,WUHU216DAVISVP2,2013-01-13 02:15:00,
2013-01-12 20:20:00,1.9,-3.6,30.21,NW,314,0.0,11.0,77,0.00,,,0.00,WUHU216DAVISVP2,2013-01-13 02:20:00,
2013-01-12 20:25:00,1.8,-3.7,30.21,WNW,302,3.0,10.0,77,0.00,,,0.00,WUHU216DAVISVP2,2013-01-13 02:25:00,
2013-01-12 20:30:00,1.6,-3.9,30.21,WNW,287,0.0,9.0,77,0.00,,,0.00,WUHU216DAVISVP2,2013-01-13 02:30:00,
2013-01-12 20:35:00,1.5,-4.0,30.21,North,355,0.0,13.0,77,0.00,,,0.00,WUHU216DAVISVP2,2013-01-13 02:35:00,
2013-01-12 20:40:00,1.2,-4.6,30.22,NW,305,0.0,13.0,76,0.00,,,0.00,WUHU216DAVISVP2,2013-01-13 02:40:00,
2013-01-12 20:45:00,1.1,-4.7,30.22,WNW,288,0.0,10.0,76,0.00,,,0.00,WUHU216DAVISVP2,2013-01-13 02:45:00,
2013-01-12 20:50:00,1.0,-4.8,30.22,NW,323,0.0,10.0,76,0.00,,,0.00,WUHU216DAVISVP2,2013-01-13 02:50:00,
2013-01-12 20:55:00,0.8,-5.0,30.23,NW,318,0.0,5.0,76,0.00,,,0.00,WUHU216DAVISVP2,2013-01-13 02:55:00,
2013-01-12 21:00:00,0.7,-5.1,30.23,WNW,288,0.0,5.0,76,0.00,,,0.00,WUHU216DAVISVP2,2013-01-13 03:00:00,
2013-01-12 21:05:00,0.6,-5.2,30.23,NW,326,0.0,6.0,76,0.00,,,0.00,WUHU216DAVISVP2,2013-01-13 03:05:00,
2013-01-12 21:10:00,0.5,-5.3,30.23,NW,306,0.0,10.0,76,0.00,,,0.00,WUHU216DAVISVP2,2013-01-13 03:10:00,
2013-01-12 21:15:00,0.4,-5.4,30.23,NW,311,0.0,10.0,76,0.00,,,0.00,WUHU216DAVISVP2,2013-01-13 03:15:00,
2013-01-12 21:20:00,0.3,-5.5,30.23,NW,324,0.0,6.0,76,0.00,,,0.00,WUHU216DAVISVP2,2013-01-13 03:20:00,
2013-01-12 21:25:00,0.2,-5.5,30.24,WNW,291,0.0,5.0,76,0.00,,,0.00,WUHU216DAVISVP2,2013-01-13 03:25:00,
2013-01-12 21:30:00,0.2,-5.5,30.24,NNW,342,0.0,5.0,76,0.00,,,0.00,WUHU216DAVISVP2,2013-01-13 03:30:00,
2013-01-12 21:35:00,0.1,-5.6,30.24,NNW,344,0.0,0.0,76,0.00,,,0.00,WUHU216DAVISVP2,2013-01-13 03:35:00,
2013-01-12 21:40:00,0.1,-5.6,30.24,North,360,0.0,0.0,76,0.00,,,0.00,WUHU216DAVISVP2,2013-01-13 03:40:00,
2013-01-12 21:45:00,0.1,-5.6,30.24,NW,313,0.0,0.0,76,0.00,,,0.00,WUHU216DAVISVP2,2013-01-13 03:45:00,
2013-01-12 21:50:00,0.1,-5.6,30.24,NNW,342,0.0,4.0,76,0.00,,,0.00,WUHU216DAVISVP2,2013-01-13 03:50:00,
2013-01-12 21:55:00,0.0,-5.7,30.25,NNW,344,0.0,4.0,76,0.00,,,0.00,WUHU216DAVISVP2,2013-01-13 03:55:00,
2013-01-12 22:00:00,0.0,-5.7,30.25,NNW,337,0.0,4.0,76,0.00,,,0.00,WUHU216DAVISVP2,2013-01-13 04:00:00,
2013-01-12 22:05:00,0.0,-5.7,30.24,North,355,0.0,6.0,76,0.00,,,0.00,WUHU216DAVISVP2,2013-01-13 04:05:00,
2013-01-12 22:10:00,0.0,-5.7,30.25,NW,311,0.0,6.0,76,0.00,,,0.00,WUHU216DAVISVP2,2013-01-13 04:10:00,
2013-01-12 22:15:00,-0.1,-6.1,30.25,NW,312,3.0,4.0,75,0.00,,,0.00,WUHU216DAVISVP2,2013-01-13 04:15:00,
2013-01-12 22:20:00,-0.1,-5.8,30.25,NW,311,0.0,4.0,76,0.00,,,0.00,WUHU216DAVISVP2,2013-01-13 04:20:00,
2013-01-12 22:25:00,-0.2,-5.9,30.25,North,5,3.0,5.0,76,0.00,,,0.00,WUHU216DAVISVP2,2013-01-13 04:25:00,
2013-01-12 22:30:00,-0.2,-5.9,30.25,NNW,327,0.0,5.0,76,0.00,,,0.00,WUHU216DAVISVP2,2013-01-13 04:30:00,
2013-01-12 22:35:00,-0.2,-5.9,30.25,WNW,298,0.0,3.0,76,0.00,,,0.00,WUHU216DAVISVP2,2013-01-13 04:35:00,
2013-01-12 22:40:00,-0.2,-5.9,30.25,NW,304,0.0,0.0,76,0.00,,,0.00,WUHU216DAVISVP2,2013-01-13 04:40:00,
2013-01-12 22:45:00,-0.2,-5.9,30.25,NNW,346,0.0,0.0,76,0.00,,,0.00,WUHU216DAVISVP2,2013-01-13 04:45:00,
2013-01-12 22:50:00,-0.1,-5.8,30.26,WNW,293,0.0,0.0,76,0.00,,,0.00,WUHU216DAVISVP2,2013-01-13 04:50:00,
2013-01-12 22:55:00,-0.1,-5.8,30.26,North,360,0.0,1.0,76,0.00,,,0.00,WUHU216DAVISVP2,2013-01-13 04:55:00,
2013-01-12 23:00:00,-0.1,-5.8,30.26,NW,306,0.0,1.0,76,0.00,,,0.00,WUHU216DAVISVP2,2013-01-13 05:00:00,
2013-01-12 23:01:00,-0.1,-5.8,30.26,NW,309,0.0,1.0,76,0.00,,,0.00,WUHU216DAVISVP2,2013-01-13 05:01:00,
2013-01-12 23:02:00,-0.1,-5.8,30.26,NW,310,0.0,1.0,76,0.00,,,0.00,WUHU216DAVISVP2,2013-01-13 05:02:00,
2013-01-12 23:07:00,-0.2,-5.9,30.27,NNW,343,0.0,0.0,76,0.00,,,0.00,WUHU216DAVISVP2,2013-01-13 05:07:00,
2013-01-12 23:12:00,-0.2,-5.9,30.26,West,281,0.0,0.0,76,0.00,,,0.00,WUHU216DAVISVP2,2013-01-13 05:12:00,
2013-01-12 23:17:00,-0.2,-5.9,30.27,West,281,0.0,0.0,76,0.00,,,0.00,WUHU216DAVISVP2,2013-01-13 05:17:00,
2013-01-12 23:22:00,-0.2,-5.9,30.27,NW,304,0.0,0.0,76,0.00,,,0.00,WUHU216DAVISVP2,2013-01-13 05:22:00,
2013-01-12 23:27:00,-0.4,-6.1,30.27,WNW,302,0.0,0.0,76,0.00,,,0.00,WUHU216DAVISVP2,2013-01-13 05:27:00,
2013-01-12 23:32:00,-0.5,-6.2,30.26,WNW,291,0.0,0.0,76,0.00,,,0.00,WUHU216DAVISVP2,2013-01-13 05:32:00,
2013-01-12 23:37:00,-0.6,-6.3,30.26,WNW,295,0.0,0.0,76,0.00,,,0.00,WUHU216DAVISVP2,2013-01-13 05:37:00,
2013-01-12 23:42:00,-0.7,-6.4,30.26,WNW,295,0.0,0.0,76,0.00,,,0.00,WUHU216DAVISVP2,2013-01-13 05:42:00,
2013-01-12 23:47:00,-0.8,-6.5,30.26,WNW,296,0.0,0.0,76,0.00,,,0.00,WUHU216DAVISVP2,2013-01-13 05:47:00,
2013-01-12 23:52:00,-0.9,-6.6,30.27,WNW,296,0.0,0.0,76,0.00,,,0.00,WUHU216DAVISVP2,2013-01-13 05:52:00,
2013-01-12 23:57:00,-1.0,-6.7,30.27,WNW,295,0.0,0.0,76,0.00,,,0.00,WUHU216DAVISVP2,2013-01-13 05:57:00,